Location: Aciu?a
(46.2833°N, 22.4500°E)
Time: 17:19:58
(UTC+00:00)

Cosmos 1455 - Pass Details

Date: 02 June 2022
Orbit: 492 x 515 km, 82.5° (Epoch: 29 June)

Event Time Altitude Azimuth Distance (km) Brightness Sun altitude
Rises 00:11:13 0° 342° (NNW) 2,584 6.5 -17.7°
Reaches altitude 10° 00:13:28 10° 332° (NNW) 1,697 5.3 -17.5°
Maximum altitude 00:16:47 32° 269° (W) 878 3.1 -17.3°
Enters shadow 00:17:14 31° 253° (WSW) 899 3.0 -17.2°
